Theta_e
311 309 305 310 318 320 322 324 324 323 327 328 331 341 341 343 352 352 355 358 364 365 366 367 366 364 363 362 362 362 362 361
306 307 313 314 319 324 321 322 325 324 321 330 338 341 343 344 351 349 350 355 363 365 365 366 366 365 363 363 362 362 362 362
307 309 314 319 321 324 321 320 322 323 321 329 340 345 343 344 348 347 347 359 360 363 364 364 364 365 364 363 362 362 362 361
304 309 315 319 323 323 322 322 323 321 322 332 343 339 340 343 347 347 349 358 358 363 363 363 363 363 363 362 362 361 361 361
305 309 313 317 323 321 320 321 322 326 320 334 339 341 341 343 346 348 355 356 355 356 361 363 362 362 362 361 361 360 359 359
306 306 309 318 321 322 320 319 327 327 320 327 339 344 345 343 342 345 349 353 351 354 355 358 360 362 361 360 360 359 359 358
305 307 310 318 316 320 322 318 323 326 325 334 340 343 342 342 340 342 345 352 349 349 351 351 354 359 360 360 360 359 358 358
310 312 311 314 316 315 315 316 316 321 323 328 336 337 338 339 337 339 341 349 348 348 349 346 343 356 357 357 356 356 354 355
308 311 313 313 314 316 313 312 315 317 321 323 328 332 334 336 338 339 342 346 349 351 350 344 339 352 349 351 352 352 352 354
309 310 312 311 315 313 314 314 318 319 320 320 321 322 325 331 334 338 341 344 349 352 350 349 344 347 343 345 348 348 349 353
310 310 310 311 310 312 312 317 318 318 318 317 320 322 322 325 330 336 336 343 347 351 352 351 362 348 342 342 343 345 346 349
309 309 310 307 308 309 310 313 313 314 314 316 317 319 322 327 330 333 346 339 349 349 357 355 357 366 352 345 348 347 347 348
307 309 307 309 304 305 310 311 311 312 313 314 317 318 321 329 334 331 346 339 341 353 358 357 358 361 366 355 348 348 350 352
306 307 308 307 299 307 311 310 309 310 312 313 315 317 323 325 331 348 340 346 350 348 358 359 359 357 358 356 353 352 349 354
301 307 306 305 300 307 310 311 310 311 312 312 314 319 325 326 339 347 343 347 356 357 356 359 360 360 360 359 360 358 354 351
299 304 305 303 302 306 309 309 309 310 311 313 314 316 322 326 329 337 336 348 352 362 360 366 360 361 360 358 357 356 356 354
303 306 304 303 303 305 308 309 308 310 311 313 315 318 323 328 328 327 332 340 343 353 366 363 359 356 355 354 355 354 354 356
303 305 304 303 301 305 307 308 309 310 312 313 315 316 319 326 328 330 333 336 341 345 355 360 359 359 356 355 354 355 355 354
299 302 304 302 299 302 306 309 310 311 313 314 314 315 319 320 328 330 330 337 336 342 346 354 357 357 357 357 355 351 352 354
299 298 293 302 291 301 304 305 308 309 311 312 314 317 318 322 327 327 328 330 339 340 340 344 351 348 348 350 347 348 351 351
Wind_Speed
9 15 18 19 9 18 8 11 7 6 3 8 9 16 10 17 23 22 18 15 15 17 18 17 15 14 14 13 14 14 13 12
15 21 25 28 15 18 4 1 8 8 8 9 5 3 14 18 23 20 20 18 17 17 16 18 16 14 14 14 13 13 13 12
17 24 24 22 21 12 7 9 9 7 5 12 10 16 16 16 19 19 18 18 17 16 16 16 16 16 14 15 14 14 13 12
18 23 24 21 5 6 17 8 7 5 6 14 15 16 14 16 15 19 17 16 16 16 16 16 15 15 16 15 14 14 13 12
23 21 23 21 4 11 13 14 7 9 4 13 16 17 14 13 13 17 20 16 13 13 13 15 14 15 15 16 15 15 15 15
21 19 24 16 20 12 10 5 8 6 10 9 12 15 13 14 14 17 16 18 14 13 14 12 12 15 15 14 15 14 14 14
25 24 20 7 10 13 5 7 5 10 14 10 11 11 12 13 14 15 14 17 15 15 13 12 13 12 14 17 15 15 13 13
23 22 19 18 14 9 12 9 11 3 11 4 7 10 12 11 11 14 15 18 16 15 14 13 12 13 11 10 9 9 10 11
25 24 23 15 9 12 16 9 10 13 11 10 8 6 7 14 14 15 15 13 18 13 13 13 10 10 7 7 7 7 10 10
24 23 19 11 15 13 18 10 12 6 7 5 4 1 6 7 9 14 16 14 19 15 13 11 8 10 10 8 8 8 9 9
21 25 8 8 14 13 15 9 11 15 9 4 4 4 9 10 8 8 10 12 20 17 13 9 5 9 10 8 9 9 9 10
18 19 17 12 14 14 19 16 11 16 12 11 12 11 11 9 7 7 6 10 9 16 13 12 7 4 7 8 8 8 9 10
20 15 17 15 20 22 18 18 18 19 11 17 14 15 12 3 5 7 3 11 12 12 14 12 11 7 4 7 8 10 8 12
17 19 15 18 19 19 20 18 20 13 14 12 12 15 7 6 6 2 5 7 6 7 15 13 11 9 6 6 7 6 9 8
19 20 20 21 19 17 18 21 20 14 13 14 13 8 6 7 1 2 3 2 4 7 7 14 11 9 8 7 5 5 6 8
19 18 15 16 17 15 16 6 7 9 12 15 10 13 10 8 6 3 4 2 3 2 7 6 10 8 7 8 9 8 7 8
15 18 18 15 15 14 15 13 13 14 13 12 11 9 6 4 5 7 5 2 4 4 2 4 5 8 8 9 9 9 10 11
16 14 8 8 12 14 15 18 15 15 13 13 12 11 9 5 6 6 6 5 3 3 4 3 4 4 6 9 10 9 10 12
18 16 15 16 17 16 20 18 17 15 14 14 15 12 10 11 6 7 4 3 5 6 5 3 5 4 5 6 6 7 9 10
17 15 13 12 14 17 21 20 19 17 13 12 14 8 7 5 4 5 2 5 1 3 4 3 5 6 8 6 8 9 9 8
Wind_Direction
245 238 239 249 307 323 153 90 133 202 259 11 74 126 115 123 119 127 136 144 133 135 136 139 142 142 142 144 142 138 139 137
258 238 238 250 266 273 333 10 202 235 173 95 51 72 120 136 126 139 143 140 139 135 137 137 136 142 146 147 144 140 140 137
235 243 252 247 254 326 272 203 190 222 178 109 96 99 130 142 133 144 147 129 144 136 138 141 145 144 147 148 144 141 140 140
236 241 238 248 340 159 253 278 272 137 215 109 125 125 142 153 144 143 137 134 144 138 140 142 150 149 147 147 142 140 135 134
250 252 246 228 185 205 253 279 267 246 248 126 151 132 145 152 154 134 130 135 146 154 144 143 146 146 148 148 146 147 146 145
237 251 258 265 186 245 247 279 47 298 44 119 102 138 141 153 161 143 146 136 153 162 164 160 158 153 152 151 149 148 148 149
242 235 253 202 237 232 247 334 204 231 82 110 130 142 162 155 167 156 158 137 159 170 169 173 163 167 158 158 156 154 155 158
242 254 263 269 212 202 265 253 277 248 97 121 166 175 171 165 174 166 164 152 157 174 168 180 170 154 174 171 174 179 177 172
249 249 255 293 204 185 239 200 237 245 193 169 194 218 238 184 179 177 166 167 155 168 163 186 180 153 174 178 185 189 188 174
260 247 253 255 287 184 232 215 237 270 311 11 41 314 275 276 279 177 167 172 152 159 164 195 172 163 173 183 184 182 191 183
239 261 267 273 252 273 281 246 257 279 282 259 258 279 276 259 265 272 164 173 157 155 165 190 230 171 172 189 180 182 182 182
254 246 257 248 261 252 251 268 265 258 266 248 241 222 228 254 276 313 88 105 307 150 155 175 211 211 176 182 174 185 180 185
248 244 242 235 239 239 240 240 237 242 243 249 237 235 234 281 243 255 157 154 212 182 162 177 189 229 218 175 204 188 191 184
237 235 234 231 244 233 227 227 235 222 249 256 233 242 208 226 257 170 359 155 165 178 164 177 184 204 221 211 199 216 200 189
250 230 211 218 239 248 265 210 218 214 231 245 230 226 247 229 244 157 172 286 210 181 187 177 185 191 206 240 226 211 229 209
247 232 194 226 231 237 273 169 190 216 244 246 222 240 213 191 215 197 87 145 275 230 194 190 178 189 209 209 235 227 225 234
224 243 198 216 249 253 240 213 214 226 216 253 244 231 219 203 148 98 95 49 326 265 238 201 185 185 202 222 216 225 233 219
289 300 278 235 239 249 257 266 227 223 216 218 233 236 228 210 158 153 154 144 167 273 280 217 217 227 222 209 225 220 219 229
262 273 256 253 256 264 261 246 245 235 232 211 228 220 199 219 204 172 150 155 189 186 176 254 272 251 241 260 266 234 218 212
268 269 262 235 253 242 229 229 233 235 217 229 230 225 241 218 233 149 170 237 299 133 148 214 240 273 274 236 241 248 250 224